User: anonymous   Login
Location: Newark
(45.2500°N, 7.5833°E)
Time: 10:50:38
(UTC+00:00)
Language:

First-Move - Orbit

View from above orbital plane
View from above orbital plane
View from above satellite
View from above satellite

Ground track
Ground track

The orbit data is extracted from the following two-line orbital elements,

1 39439U 13066Z   21026.87967857  .00000661  00000-0  86200-4 0  9995
2 39439  97.5866  19.7861 0063433 263.8072  95.5913 14.82408268386978
Epoch (UTC): 26 January 2021 21:06:44
Eccentricity: 0.0063433
inclination: 97.5866°
perigee height: 577 km
apogee height: 666 km
right ascension of ascending node: 19.7861°
argument of perigee: 263.8072°
revolutions per day: 14.82408268
mean anomaly at epoch: 95.5913°
orbit number at epoch: 38697

The dashed part of the orbit path shows where the satellite is in the earth's shadow,  

DLR